DW3169 Weather Reports


Display with metric or nautical units.
time (UTC)temp
F
wind
direction
speed
MPH
gust
MPH
rain 1hr
in
rain 24hr
in
rain mn
in
humidity
%
barometer
mb
20260506185928 66 333 0.0 0.0 0.00 0.00 0.00 71 1020.3
20260506184906 66 182 0.0 0.0 0.00 0.00 0.00 71 1020.2
20260506182735 65 191 0.0 0.0 0.00 0.00 0.00 73 1020.3
20260506181709 64 192 0.0 0.0 0.00 0.00 0.00 72 1020.2
20260506180643 64 21 0.0 0.0 0.00 0.00 0.00 73 1020.2
20260506175655 63 311 0.0 0.0 0.00 0.00 0.00 74 1020.2
20260506174621 63 160 0.0 0.0 0.00 0.00 0.00 74 1020.2
20260506173607 62 184 0.0 0.0 0.00 0.00 0.00 76 1020.2
20260506172604 62 184 0.0 0.0 0.00 0.00 0.00 76 1020.3
20260506171617 62 175 0.0 0.0 0.00 0.00 0.00 76 1020.4
20260506170632 62 188 0.0 0.0 0.00 0.00 0.00 75 1020.4
20260506165624 61 175 0.0 0.0 0.00 0.00 0.00 77 1020.4
20260506163502 60 232 0.0 0.0 0.00 0.00 0.00 79 1020.3
20260506162509 60 9 0.0 0.0 0.00 0.00 0.00 80 1020.4
20260506161524 59 63 0.0 0.0 0.00 0.00 0.00 79 1020.5
20260506160500 59 119 0.0 0.0 0.00 0.00 0.00 82 1020.4
20260506155457 58 94 0.0 0.0 0.00 0.00 0.00 81 1020.4
20260506154423 58 97 0.0 0.0 0.00 0.00 0.00 84 1020.4
20260506151203 56 82 0.0 0.0 0.00 0.00 0.00 85 1020.4
20260506150226 56 75 0.0 0.0 0.00 0.00 0.00 86 1020.3
20260506144103 55 49 0.0 0.0 0.00 0.00 0.00 87 1020.2
20260506143057 55 52 0.0 0.0 0.00 0.00 0.00 88 1020.2
20260506142117 55 49 0.0 0.0 0.00 0.00 0.00 88 1020.1
20260506141142 55 72 0.0 0.0 0.00 0.00 0.00 88 1019.9
20260506135003 55 72 0.0 0.0 0.00 0.00 0.00 87 1019.8
20260506134024 55 72 0.0 0.0 0.00 0.00 0.00 86 1019.7
20260506133028 55 72 0.0 0.0 0.00 0.00 0.00 86 1019.7
20260506132023 55 72 0.0 0.0 0.00 0.00 0.00 85 1019.6
20260506131007 55 72 0.0 0.0 0.00 0.00 0.00 85 1019.5
20260506125958 55 72 0.0 0.0 0.00 0.00 0.00 85 1019.5
20260506124936 55 72 0.0 0.0 0.00 0.00 0.00 85 1019.5
20260506123910 55 72 0.0 0.0 0.00 0.00 0.00 85 1019.4
20260506122902 55 72 0.0 0.0 0.00 0.00 0.00 85 1019.4
20260506120733 55 72 0.0 0.0 0.00 0.00 0.00 84 1019.3
20260506115716 55 72 0.0 0.0 0.00 0.00 0.00 84 1019.3
20260506114740 55 72 0.0 0.0 0.00 0.00 0.00 84 1019.2
20260506113730 55 74 0.0 0.0 0.00 0.00 0.00 85 1019.1
20260506112739 55 70 0.0 0.0 0.00 0.00 0.00 84 1019.1
20260506110629 55 71 0.0 0.0 0.00 0.00 0.00 84 1018.9
20260506104514 55 73 0.0 0.0 0.00 0.00 0.00 84 1018.8
20260506103537 55 73 0.0 0.0 0.00 0.00 0.00 84 1018.8
20260506102512 55 72 0.0 0.0 0.00 0.00 0.00 84 1018.8
20260506101458 55 37 0.0 0.0 0.00 0.00 0.00 84 1018.6
20260506095315 55 28 0.0 0.0 0.00 0.00 0.00 85 1018.7
20260506094254 55 29 0.0 0.0 0.00 0.00 0.00 86 1018.7
20260506091016 55 29 0.0 0.0 0.00 0.01 0.00 85 1018.7
20260506090008 55 29 0.0 0.0 0.00 0.02 0.00 84 1018.7
20260506083823 55 34 0.0 0.0 0.00 0.02 0.00 84 1018.7
20260506082833 55 51 0.0 0.0 0.00 0.02 0.00 85 1018.7
20260506081835 55 51 0.0 0.0 0.00 0.03 0.00 85 1018.8
20260506080849 55 51 0.0 0.0 0.00 0.05 0.00 85 1018.8
20260506072721 56 52 0.0 0.0 0.00 0.11 0.00 85 1018.5
20260506071744 56 0 0.0 0.0 0.00 0.11 0.00 84 1018.4
20260506070709 56 0 0.0 0.0 0.00 0.12 0.00 85 1018.4
20260506060430 56 159 0.0 0.0 0.00 0.15 0.12 87 1018.0
20260506051111 56 128 0.0 0.0 0.00 0.18 0.12 87 1017.8
20260506050130 56 128 0.0 0.0 0.00 0.18 0.12 86 1017.8
20260506044020 56 78 0.0 0.0 0.00 0.21 0.12 85 1017.5
20260506043010 56 78 0.0 0.0 0.00 0.21 0.12 84 1017.4
20260506040827 56 123 0.0 0.0 0.00 0.21 0.12 82 1017.2
20260506035832 56 123 0.0 0.0 0.00 0.21 0.12 82 1017.0
20260506034827 56 123 0.0 0.0 0.00 0.21 0.12 80 1016.8
20260506033836 57 136 0.0 0.0 0.00 0.21 0.12 81 1016.8
20260506032832 57 144 0.0 0.0 0.00 0.21 0.12 80 1016.6
20260506031818 57 280 0.0 0.0 0.00 0.21 0.12 79 1016.4
20260506030843 58 126 0.0 0.0 0.00 0.21 0.12 78 1016.3
20260506025843 58 124 0.0 0.0 0.00 0.21 0.12 79 1016.2
20260506024823 58 72 0.0 0.0 0.00 0.21 0.12 78 1016.2
20260506023804 59 9 0.0 0.0 0.00 0.21 0.12 77 1016.2
20260506022759 59 181 0.0 0.0 0.00 0.21 0.12 77 1016.1
20260506015528 60 268 0.0 0.0 0.00 0.21 0.12 75 1015.7
20260506013336 60 333 0.0 0.0 0.00 0.21 0.12 75 1015.6
20260506012354 60 355 0.0 0.0 0.00 0.21 0.12 76 1015.6
20260506011333 61 144 0.0 0.0 0.00 0.21 0.12 75 1015.7
20260506010330 61 111 0.0 0.0 0.00 0.21 0.12 76 1015.7
20260506005326 61 146 0.0 0.0 0.00 0.21 0.12 75 1015.6
20260506004324 61 159 0.0 0.0 0.00 0.21 0.12 76 1015.6
20260506003325 61 164 0.0 0.0 0.00 0.21 0.12 76 1015.5
20260506002327 61 138 0.0 0.0 0.00 0.21 0.12 77 1015.4
20260506001336 61 9 0.0 0.0 0.00 0.21 0.12 76 1015.2
20260506000340 60 15 0.0 0.0 0.00 0.21 0.12 78 1015.3
20260505235318 60 57 0.0 0.0 0.00 0.21 0.12 78 1015.4
20260505233211 61 152 0.0 0.0 0.00 0.21 0.12 78 1015.4
20260505232149 61 355 0.0 0.0 0.00 0.21 0.12 79 1015.4
20260505225956 62 19 0.0 0.0 0.00 0.21 0.12 78 1015.4
20260505225005 62 70 0.0 0.0 0.00 0.21 0.12 77 1015.4
20260505223942 63 311 0.0 0.0 0.00 0.21 0.12 77 1015.3
20260505222942 63 327 0.0 0.0 0.00 0.21 0.12 77 1015.3
20260505221909 63 157 0.0 0.0 0.00 0.21 0.12 78 1015.4
20260505220902 62 117 0.0 0.0 0.00 0.21 0.12 79 1015.3
20260505215924 62 164 0.0 0.0 0.00 0.21 0.12 77 1015.5
20260505213738 61 139 0.0 0.0 0.00 0.21 0.12 79 1015.6
20260505211632 61 237 0.0 0.0 0.00 0.21 0.12 81 1015.7
20260505210600 61 196 0.0 0.0 0.00 0.21 0.12 80 1015.8
20260505205526 61 142 0.0 0.0 0.00 0.21 0.12 82 1015.7
20260505204527 60 158 0.0 0.0 0.00 0.21 0.12 80 1015.7
20260505202338 60 355 0.0 0.0 0.00 0.21 0.12 83 1015.7
20260505201359 60 165 0.0 0.0 0.00 0.21 0.12 82 1015.8
20260505195245 60 151 0.0 0.0 0.00 0.21 0.12 83 1015.9
20260505194211 60 153 0.0 0.0 0.00 0.21 0.12 83 1015.9
20260505193138 60 166 0.0 0.0 0.00 0.21 0.12 85 1015.9
20260505192119 59 93 0.0 0.0 0.00 0.21 0.12 87 1015.9